Hourly Data Report for June 14, 2021

WRIGLEY A
NORTHWEST TERRITORIES
Current Station Operator: NAVCAN

63°12'35.000" N
123°26'12.000" W
149.70 m
2204005
YWY

Download Data

Hourly Data (June 2021)
Hourly Data Report for June 14, 2021
TIME
LST
Temp Definition
°C
Dew Point Definition
°C
Rel Hum Definition
%
Precip. Amount Definition
mm

Wind Dir Definition
10's deg

Wind Spd Definition
km/h
Visibility Definition
km
Stn Press Definition
kPa
Hmdx Definition


Wind Chill Definition


Weather Definition


00:00 12.2 10.6 90 LegendMM 31 8 LegendMM 99.25     LegendNANA
01:00 12.0 8.8 80 LegendMM 34 4 LegendMM 99.31     LegendNANA
02:00 11.2 7.6 78 LegendMM 32 4 LegendMM 99.36     LegendNANA
03:00 10.5 7.4 81 LegendMM 31 11 LegendMM 99.44     LegendNANA
04:00 9.9 6.9 82 LegendMM 30 11 LegendMM 99.51     LegendNANA
05:00 9.7 7.1 84 LegendMM 32 11 LegendMM 99.61     LegendNANA
06:00 9.1 8.2 94 LegendMM 32 5 LegendMM 99.67     LegendNANA
07:00 9.1 8.2 95 LegendMM 31 13 LegendMM 99.72     LegendNANA
08:00 9.6 8.7 94 LegendMM 32 7 LegendMM 99.75     LegendNANA
09:00 10.9 8.9 87 LegendMM 31 9 LegendMM 99.76     LegendNANA
10:00 11.9 8.9 82 LegendMM 29 10 LegendMM 99.80     LegendNANA
11:00 13.8 8.6 71 LegendMM 30 11 LegendMM 99.81     LegendNANA
12:00 16.3 8.9 61 LegendMM 30 17 LegendMM 99.80     LegendNANA
13:00 17.5 8.2 54 LegendMM 30 17 LegendMM 99.77     LegendNANA
14:00 18.1 7.5 49 LegendMM 30 18 LegendMM 99.73     LegendNANA
15:00 18.2 7.2 48 LegendMM 30 23 LegendMM 99.73     LegendNANA
16:00 19.1 6.7 44 LegendMM 30 20 LegendMM 99.74     LegendNANA
17:00 18.9 6.6 44 LegendMM 31 19 LegendMM 99.73     LegendNANA
18:00 19.3 6.2 42 LegendMM 30 19 LegendMM 99.73     LegendNANA
19:00 18.9 6.2 43 LegendMM 30 13 LegendMM 99.74     LegendNANA
20:00 19.7 7.1 43 LegendMM 6 4 LegendMM 99.79     LegendNANA
21:00 17.5 7.4 51 LegendMM 35 11 LegendMM 99.84     LegendNANA
22:00 15.5 6.8 56 LegendMM 35 4 LegendMM 99.89     LegendNANA
23:00 15.0 6.4 56 LegendMM 34 8 LegendMM 99.93     LegendNANA

Notes on Data Quality.

Legend

  • E = Estimated
  • M = Missing
  • NA = Not Available*
  • [empty] = Indicates an unobserved value
Date modified: